Time,TemperatureF,DewpointF,PressureIn,WindDirection,WindDirectionDegrees,WindSpeedMPH,WindSpeedGustMPH,Humidity,HourlyPrecipIn,Conditions,Clouds,dailyrainin,SoftwareType,DateUTC
2013-07-08 00:11:00,71.0,40.0,-100.00,SW,235,-999.0,2.0,32,-99.99,,,-99.99,,2013-07-08 07:11:00,
2013-07-08 00:22:00,71.0,40.0,-100.00,SW,235,-999.0,5.0,32,-99.99,,,-99.99,,2013-07-08 07:22:00,
2013-07-08 00:44:00,73.0,39.0,-100.00,North,1,-999.0,5.0,29,-99.99,,,-99.99,,2013-07-08 07:44:00,
2013-07-08 00:53:00,73.0,39.0,-100.00,North,1,-999.0,5.0,29,-99.99,,,-99.99,,2013-07-08 07:53:00,
2013-07-08 01:11:00,72.0,43.0,-100.00,North,10,-999.0,3.0,35,-99.99,,,-99.99,,2013-07-08 08:11:00,
2013-07-08 01:22:00,72.0,43.0,-100.00,North,10,-999.0,3.0,35,-99.99,,,-99.99,,2013-07-08 08:22:00,
2013-07-08 01:42:00,71.0,39.0,-100.00,NNE,15,-999.0,4.0,31,-99.99,,,-99.99,,2013-07-08 08:42:00,
2013-07-08 01:53:00,71.0,39.0,-100.00,NNE,15,-999.0,4.0,31,-99.99,,,-99.99,,2013-07-08 08:53:00,
2013-07-08 02:11:00,69.0,40.0,-100.00,NNE,15,-999.0,0.0,35,-99.99,,,-99.99,,2013-07-08 09:11:00,
2013-07-08 02:22:00,69.0,40.0,-100.00,NNE,15,-999.0,0.0,35,-99.99,,,-99.99,,2013-07-08 09:22:00,
2013-07-08 02:43:00,68.0,41.0,-100.00,NNE,15,-999.0,-999.0,37,-99.99,,,-99.99,,2013-07-08 09:43:00,
2013-07-08 02:53:00,68.0,41.0,-100.00,NNE,15,-999.0,1.0,37,-99.99,,,-99.99,,2013-07-08 09:53:00,
2013-07-08 03:11:00,70.0,39.0,-100.00,NNE,15,-999.0,1.0,32,-99.99,,,-99.99,,2013-07-08 10:11:00,
2013-07-08 03:22:00,70.0,39.0,-100.00,NNE,15,-999.0,1.0,32,-99.99,,,-99.99,,2013-07-08 10:22:00,
2013-07-08 04:11:00,67.0,46.0,-100.00,NNE,15,-999.0,0.0,46,-99.99,,,-99.99,,2013-07-08 11:11:00,
2013-07-08 04:22:00,67.0,46.0,-100.00,NNE,15,-999.0,0.0,46,-99.99,,,-99.99,,2013-07-08 11:22:00,
2013-07-08 04:33:00,66.0,45.0,-100.00,North,0,-999.0,0.0,47,-99.99,,,-99.99,,2013-07-08 11:33:00,
2013-07-08 04:43:00,66.0,45.0,-100.00,North,0,-999.0,0.0,47,-99.99,,,-99.99,,2013-07-08 11:43:00,
2013-07-08 04:53:00,66.0,45.0,-100.00,North,0,-999.0,3.0,47,-99.99,,,-99.99,,2013-07-08 11:53:00,
2013-07-08 05:11:00,68.0,46.0,-100.00,North,11,-999.0,3.0,45,-99.99,,,-99.99,,2013-07-08 12:11:00,
2013-07-08 05:22:00,68.0,46.0,-100.00,North,11,-999.0,1.0,45,-99.99,,,-99.99,,2013-07-08 12:22:00,